Regional Weather Roundup
Issued by NWS Jackson, KY

Home | Current Version | Previous Version | Graphics & Text | Print | Product List | Glossary On
Versions: 1 2 3 4 5 6 7 8 9 10 11 12 13 14 15 16 17 18 19 20 21 22 23 24 25 26 27 28 29 30 31 32 33 34 35 36 37 38 39 40 41 42 43 44 45 46 47 48 49 50
194
ASUS43 KJKL 270210
RWRJKL

EAST KENTUCKY HOURLY WEATHER ROUNDUP
NATIONAL WEATHER SERVICE JACKSON KY
1000 PM EDT THU MAY 26 2016

NOTE: "FAIR" INDICATES FEW OR NO CLOUDS BELOW 12,000 FEET WITH
NO SIGNIFICANT WEATHER AND/OR OBSTRUCTIONS TO VISIBILITY.

* THESE REPORTS ARE NOT UNDER NWS QUALITY CONTROL AND MAY NOT
  REPORT WEATHER SUCH AS PRECIPITATION AND FOG.

KYZ079-080-083-085-087-088-110-112-115-119-120-270300
...EASTERN KENTUCKY...

CITY           SKY/WX    TMP DP  RH WIND       PRES   REMARKS
JACKSON        CLEAR     67  62  84 CALM      30.05S
LONDON         PTCLDY    66  60  81 SE8       30.04F
SOMERSET*      PTCLDY    63  63 100 CALM      30.06R
WILLIAMSBURG*  PTCLDY    63  59  88 S3        30.08R
MIDDLESBORO*   CLEAR     65  62  89 CALM      30.09F
HARLAN APT*      N/A     64  63  94 CALM      30.10S
HAZARD APT*    CLEAR     68  66  94 S3        30.05S
BLACK MTN*       N/A     59  59 100 SW7         N/A
PIKE CO APT*     N/A     70  66  87 S5        30.06F
BIG SANDY APT* CLEAR     73  64  73 S5        30.04
MOREHEAD APT*  CLEAR     66  64  94 S7        30.04S FOG
ASHLAND*       PTCLDY    72  66  83 CALM      29.99R
$$

KYZ035-036-041-042-044-050-067-078-099-270300
...CENTRAL KENTUCKY...

CITY           SKY/WX    TMP DP  RH WIND       PRES   REMARKS
MT STERLING*   CLOUDY    64  64 100 CALM      30.05R
FLEMING/MASON* CLEAR     64  64  97 CALM      30.04R
DANVILLE*      CLOUDY    63  61  94 S3        30.04R
RICHMOND*      CLOUDY    64  61  88 SW5       30.04R
LEXINGTON      PTCLDY    64  62  93 SE7       30.02S
FRANKFORT      CLOUDY    66  62  87 CALM      30.01R
LOUISVILLE     CLOUDY    68  64  87 SE7       29.99S
LEBANON*         N/A     66  64  94 S5        30.02R
GLASGOW*       CLOUDY    65  65 100 SW6       30.04R
BOWLING GREEN  CLOUDY    68  66  93 S10       30.03R
$$

KYZ091>093-OHZ055-061-077-WVZ005-015-034-035-042-270300
...SOUTHERN OHIO/WEST VIRGINIA...

CITY           SKY/WX    TMP DP  RH WIND       PRES   REMARKS
COVINGTON      CLOUDY    67  65  93 SW7       30.01R
COLUMBUS       CLOUDY    74  66  76 S6        29.98R
DAYTON         CLOUDY    69  62  78 SW7       30.01R
WILMINGTON     MOCLDY    67  65  93 SW6       30.01R
HUNTINGTON       N/A     73  64  73 S3        30.01S
CHARLESTON       N/A     70  63  78 CALM      30.04F
PINEVILLE*       N/A     64  61  89 MISG      30.15F
BECKLEY          N/A     65  60  84 SE5       30.14F
BLUEFIELD        N/A     66  59  78 CALM      30.17S
LOGAN CO APT*    N/A     72  64  78 S7        30.06F
$$

VAZ002-007-008-TNZ017-027-036-066-071-270300
...SOUTHWEST VIRGINIA/EAST TENNESSEE...

CITY           SKY/WX    TMP DP  RH WIND       PRES   REMARKS
WISE*            N/A     64  59  82 S3        30.16F
JONESVILLE*      N/A     64  64 100 CALM      30.12S
ABINGDON*        N/A     65  63  91 CALM      30.14F
BRISTOL        PTCLDY    66  63  90 CALM      30.11F
SEVIERVILLE*   CLOUDY    70  64  83 NE3       30.09S
KNOXVILLE      CLEAR     74  62  66 NE6       30.06F
OAK RIDGE      CLOUDY    73  63  70 E3        30.08F
CROSSVILLE     CLOUDY    68  60  75 CALM      30.11S
NASHVILLE      CLOUDY    70  65  84 E6        30.06S
$$

...KEY TO REMARKS...
VSB - VISIBILITY IN MILES
WCI - WIND CHILL INDEX
HX  - HEAT INDEX

$$




USA.gov is the U.S. government's official web portal to all federal, state and local government web resources and services.